Location: Whelan
(46.7841°N, 117.1166°W)
Time: 11:19:12
(UTC+00:00)

Envisat - Pass Details

Date: 19 April 2024
Orbit: 762 x 764 km, 98.3° (Epoch: 26 May)

Event Time Altitude Azimuth Distance (km) Brightness Sun altitude
Rises 11:14:55 0° 14° (NNE) 3,240 7.1 -15.7°
Reaches altitude 10° 11:17:14 10° 15° (NNE) 2,309 6.2 -15.4°
Maximum altitude 11:22:20 84° 103° (ESE) 774 3.0 -14.6°
Enters shadow 11:27:15 11° 193° (SSW) 2,234 5.0 -13.9°
